This demonstration page uses our WeatherBlox Daily Observations layout. Learn more.

Left ArrowRight Arrow

30.21309, -93.2044

Hourly Observations for July 6, 2019

Temp ( °F °C ) Dew Point ( °F °C ) Humidity (%) Winds ( mph kmh ) Pressure ( in mb ) Visibility ( mi km ) Precip ( " mm )
12:15 am 00:15 Clear 76 24.6 76 24.2 98 98 Calm 30.09 1019 10 16 0.00 0.00
12:35 am 00:35 Clear 76 24.2 74 23.6 96 96 E 6 9 30.09 1019 7 11 0.00 0.00
12:55 am 00:55 Clear 76 24.3 75 23.9 98 98 Calm 30.09 1019 10 16 0.00 0.00
1:15 am 01:15 Clear 76 24.2 75 23.9 98 98 Calm 30.09 1019 7 11 0.00 0.00
1:35 am 01:35 Clear 76 24.2 75 23.8 98 98 Calm 30.08 1019 7 11 0.00 0.00
1:55 am 01:55 Clear 76 24.5 74 23.6 95 95 Calm 30.07 1018 10 16 0.00 0.00
2:15 am 02:15 Clear 74 23.6 74 23.1 97 97 ESE 3 6 30.08 1019 7 11 0.00 0.00
2:35 am 02:35 Clear 74 23.5 74 23.2 98 98 Calm 30.07 1018 7 11 0.00 0.00
2:55 am 02:55 Clear 76 24.2 75 23.8 98 98 Calm 30.07 1018 10 16 0.00 0.00
3:15 am 03:15 Clear 75 23.9 74 23.3 96 96 Calm 30.07 1018 10 16 0.00 0.00
3:35 am 03:35 Clear 74 23.4 73 23 98 98 Calm 30.07 1018 5 8 0.00 0.00
3:55 am 03:55 Clear 74 23.5 74 23.2 98 98 Calm 30.07 1018 2 3 0.00 0.00
4:15 am 04:15 Clear 74 23.5 74 23.2 98 98 Calm 30.07 1018 7 11 0.01 0.25
4:35 am 04:35 Clear 74 23.6 74 23.4 99 99 Calm 30.08 1019 7 11 0.01 0.25
4:55 am 04:55 Clear 75 23.9 74 23.5 98 98 Calm 30.08 1019 7 11 0.01 0.25
5:15 am 05:15 Clear 74 23.6 74 23.2 98 98 Calm 30.09 1019 7 11 0.00 0.00
5:35 am 05:35 Clear 74 23.5 73 23 97 97 Calm 30.09 1019 7 11 0.00 0.00
6:00 am 06:00 Mostly Clear 73 23 73 23 100 100 VRB 3 6 30.09 1019 10 16 0.00 0.00
6:45 am 06:45 Mostly Sunny 75 24 75 24 100 100 VRB 3 6 30.09 1019 10 16 0.00 0.00
7:55 am 07:55 Mostly Sunny 79 26 77 25 94 94 VRB 5 7 30.11 1020 10 16 0.00 0.00
8:50 am 08:50 Mostly Sunny 79 26 77 25 94 94 VRB 5 7 30.11 1020 10 16 0.00 0.00
9:45 am 09:45 Mostly Sunny 84 29 79 26 84 84 VRB 7 11 30.12 1020 10 16 0.00 0.00
10:55 am 10:55 Mostly Sunny 88 31 73 23 62 62 Calm 30.12 1020 10 16 0.00 0.00
11:55 am 11:55 Mostly Sunny 90 32 73 23 59 59 Calm 30.12 1020 10 16 0.00 0.00
12:45 pm 12:45 Mostly Sunny 90 32 73 23 59 59 Calm 30.11 1020 10 16 0.00 0.00
1:45 pm 13:45 Mostly Sunny 93 34 75 24 56 56 ESE 3 6 30.09 1019 10 16 0.00 0.00
2:50 pm 14:50 Partly Cloudy 95 35 73 23 50 50 SW 5 7 30.08 1019 10 16 0.00 0.00
3:55 pm 15:55 Partly Cloudy 95 35 73 23 50 50 S 7 11 30.04 1017 10 16 0.00 0.00
4:50 pm 16:50 Partly Cloudy 95 35 70 21 44 44 S 7 11 30.02 1017 10 16 0.00 0.00
5:50 pm 17:50 Mostly Sunny 93 34 72 22 49 49 SSE 6 9 30.01 1016 10 16 0.00 0.00
6:50 pm 18:50 Mostly Sunny 91 33 73 23 56 56 SSW 8 13 30.02 1017 10 16 0.00 0.00
7:50 pm 19:50 Mostly Sunny 90 32 72 22 55 55 SW 8 13 30.04 1017 10 16 0.00 0.00
8:50 pm 20:50 Mostly Clear 86 30 73 23 66 66 SW 7 11 30.05 1018 10 16 0.00 0.00
9:50 pm 21:50 Mostly Clear 84 29 73 23 70 70 SW 6 9 30.05 1018 10 16 0.00 0.00
10:15 pm 22:15 Clear 84 28.9 74 23.1 71 71 SSW 5 7 30.05 1018 10 16 0.00 0.00
10:35 pm 22:35 Clear 84 28.8 74 23.3 72 72 WSW 3 6 30.06 1018 10 16 0.00 0.00
10:55 pm 22:55 Clear 83 28.6 74 23.2 73 73 SW 3 6 30.05 1018 7 11 0.00 0.00
11:15 pm 23:15 Clear 83 28.5 74 23.2 73 73 SSW 5 7 30.05 1018 10 16 0.00 0.00
11:35 pm 23:35 Clear 83 28.1 75 23.7 77 77 SSW 7 11 30.04 1017 7 11 0.00 0.00
11:55 pm 23:55 Clear 82 27.9 75 24.1 80 80 SW 7 11 30.04 1017 10 16 0.00 0.00

Powered by AerisWeather